Location: Unspecified
(0.0000°N, 0.0000°E)
Time: 17:15:21
(UTC+00:00)

Courier 1B Rocket - Pass Details

Date: 03 October 2020
Orbit: 921 x 1202 km, 28.2° (Epoch: 27 October)

Event Time Altitude Azimuth Distance (km) Brightness Sun altitude
Rises 22:03:48 0° 219° (SW) 4,098 - -63.4°
Reaches altitude 10° 22:07:21 10° 206° (SSW) 3,126 - -64.3°
Maximum altitude 22:13:22 24° 155° (SSE) 2,220 - -65.8°
Drops below altitude 10° 22:19:13 10° 104° (ESE) 3,030 - -67.2°
Sets 22:22:34 0° 90° (E) 3,946 - -68.0°
